Location: Chrząstowo
(52.0654°N, 17.1290°E)
Time: 10:03:25
(UTC+01:00)

Envisat - Pass Details

Date: 18 December 2019
Orbit: 764 x 766 km, 98.1° (Epoch: 26 January)

Event Time Altitude Azimuth Distance (km) Brightness Sun altitude
Rises 18:40:26 0° 198° (SSW) 3,223 6.5 -26.2°
Reaches altitude 10° 18:43:04 10° 211° (SSW) 2,302 5.9 -26.6°
Maximum altitude 18:47:20 27° 268° (W) 1,460 5.1 -27.2°
Drops below altitude 10° 18:51:37 10° 325° (NW) 2,316 5.8 -27.9°
Sets 18:54:17 0° 338° (NNW) 3,248 6.5 -28.3°
